Asteroid 2009 CR1
(Preview)
Solar System
0
470
Asteroid 2009 CR1 = 9C9540E (NEOCPO) Orbital elements: 2009 CR1 Earth MOID = 0.0595 AU Epoch 2008 Nov. 30.0 TT = JDT 2454800.5 MPC M 314.38494 (2000.0) P Q n 0.43040159 Peri. 236.60665 -0.99689791 -0.04067631 a 1.7373479 Node 300.97843 +0.06597857 -0.89865774 e 0.4187019 Incl. 4.50749 -0.042911...
Asteroid 2009 CS
(Preview)
Solar System
1
416
2009 CS = 9C0894E (NEOCPO) Orbital elements: 2009 CS PHA, Earth MOID = 0.0440 AU Epoch 2009 Jan. 29.0 TT = JDT 2454860.5 MPC M 10.04801 (2000.0) P Q n 0.18658824 Peri. 167.34836 +0.45648613 -0.88755967 a 3.0330521 Node 255.46291 +0.81061939 +0.44366088 e 0.7389048 Incl. 3.67915 +0.36676507 +0.12...
Comet 2009 B5 (NEAT)
(Preview)
Solar System
1
583
Comet P/2002 O8 = 2009 B5 (NEAT) Orbital elements: P/2002 O8 = 2009 B5 (NEAT) Epoch 2002 May 6.0 TT = JDT 2452400.5 T 2002 May 8.61614 TT MPC q 3.2293889 (2000.0) P Q n 0.12169156 Peri. 222.28101 +0.44997049 +0.86696044 a 4.0330079 Node 75.50177 -0.74866054 +0.49700035 e 0.1992605 Incl. 12.78567 -0...
ICO's satellite launch
(
1 2
)
(Preview)
Mission News
11
5684
ICO North America (ICO) today announced that it has signed an agreement to launch its geostationary satellite on an Atlas V rocket provided by International Launch Services (ILS). The Atlas V is manufactured by Lockheed Martin (NYSE:LMT), which is a partner in the ILS joint venture.
ICO's sat...
DM-F3 Rocket Body Re-entry
(Preview)
Mission News
1
557
A Delta III rocket body that was launched on August 23rd 2000 from the Cape Canaveral, SLC-17B, for the DM-F3 Demosat mission, is predicted to re-enter the Earths atmosphere on the 29th January 2009. Period Incl. Apogee Perigee 91.4 27.4 530 156 TLE Data [...
Akhnoor meteorite
(Preview)
Meteorite News
0
520
A meteorite hit Akhnoor area in Jammu, Saturday night following which many astronomical organisations rushed their teams to study the phenomenon on the spot. The meteorite, according to the locals, descended in the open ground at 11.25 pm. However, it didn't cause any damage to life or property,...
Asteroid 2004 BY1
(Preview)
Solar System
0
453
The 35 - 77 metre wide asteroid 2004 BY1 will make a close pass (37.3 Lunar Distances, 0.0958 AU) to the Earth-Moon system on the 9th February 2009. See more The Lunar Distance (LD), the distance between Earth and the Moon, equals 384,401 km, (or 0.00256 AU).
Asteroid 2009 BD58
(Preview)
Solar System
1
523
Orbital elements: 2009 BD58 Earth MOID = 0.0652 AU Epoch 2008 Nov. 30.0 TT = JDT 2454800.5 MPC M 309.94071 (2000.0) P Q n 0.44316283 Peri. 64.87388 -0.94668671 +0.24363620 a 1.7038335 Node 128.50310 -0.29015338 -0.92911825 e 0.4774668 Incl. 15.62464 +0.13998315 -0.27817382 P 2.22 H 22.1 G 0.15 U 7...
Asteroid 2009 BC
(Preview)
Solar System
1
547
Orbital elements: 2009 BC Earth MOID = 0.0499 AU Epoch 2008 Nov. 30.0 TT = JDT 2454800.5 MPC M 240.91422 (2000.0) P Q n 0.87425332 Peri. 134.66949 -0.29833884 +0.94513353 a 1.0832063 Node 117.54320 -0.91267122 -0.24167686 e 0.5436674 Incl. 8.63373 -0.27932986 -0.21980650 P 1.13 H 22.8 G 0.15 U 9 MP...
Asteroid 2009 CP
(Preview)
Solar System
0
483
Asteroid 2009 CP = 9C943E5 (NEOCPO) The 12 - 28 metre wide asteroid 2009 CP will make a close pass (7.7 Lunar Distances, 0.0199 AU) to the Earth-Moon system on the 8th February 2009. See more The Lunar Distance (LD), the distance between Earth and the Moon, equals 384,401 km, (or 0.00256 AU). Orbital el...
Asteroid 2009 CQ
(Preview)
Solar System
0
440
Asteroid 2009 CQ = 9C944E2 (NEOCPO) Orbital elements: 2009 CQ Earth MOID = 0.0230 AU Epoch 2008 Nov. 30.0 TT = JDT 2454800.5 MPC M 352.78464 (2000.0) P Q n 0.59936968 Peri. 288.63754 +0.40225508 -0.91306381 a 1.3931767 Node 137.44507 +0.87294548 +0.36041446 e 0.3818624 Incl. 5.69592 +0.2759656...
Asteroid 2009 CR
(Preview)
Solar System
0
463
2009 CR = 9C945D8 (NEOCPO) Orbital elements: 2009 CR Earth MOID = 0.0908 AU Epoch 2008 Nov. 30.0 TT = JDT 2454800.5 MPC M 337.82064 (2000.0) P Q n 0.43905182 Peri. 332.37895 -0.46839989 -0.88295897 a 1.7144528 Node 145.52535 +0.82049269 -0.44788881 e 0.3749858 Incl. 3.17845 +0.32770916 -0.14063...
Asteroid 2009 CZ
(Preview)
Solar System
0
460
Orbital elements: 2009 CZ Earth MOID = 0.2891 AU Epoch 2009 Jan. 29.0 TT = JDT 2454860.5 MPC M 331.94052 (2000.0) P Q n 0.29739113 Peri. 190.11169 -0.61368517 +0.75218007 a 2.2228870 Node 42.59032 -0.69737227 -0.37383235 e 0.6964792 Incl. 20.77405 -0.37021943 -0.54265506 P 3.31 H 17.9 G 0.15 From...
Asteroid 2007 BG29
(Preview)
Solar System
0
485
Orbital elements: 2007 BG29 Earth MOID = 0.0872 AU Epoch 2008 Nov. 30.0 TT = JDT 2454800.5 MPC M 16.79384 (2000.0) P Q n 1.29755770 Peri. 245.07092 +0.54846369 +0.78867626 a 0.8325013 Node 61.05170 -0.60575132 +0.60378131 e 0.3347213 Incl. 18.51025 -0.57641385 +0.11592186 P 0.76 H 18.0 G 0.15 U 6 M...
Nulling interferometry
(Preview)
General news
1
756
The hunt for extraterrestrial life is getting a major boost from revolutionary new technology that will give some of the world's largest telescopes the capability to detect Earth-size planets outside of our solar system, a feat not equalled even by the Hubble Space Telescope. The technique, call...
«First < 1
2162 2163 2164 2165 2166
2461 > Last» | Page
